Temperature
16 16 16 16 16 16 16 16 16 16 17 17 17 17 17 17 17 17 17 17 17 17 16 16 16 16 15 15 15 15 15 15 15 15 15 15 15 15 15 15 15 15 15
15 16 16 16 16 16 16 16 16 16 16 16 17 17 17 17 17 17 17 17 16 16 16 16 16 16 15 15 15 15 15 15 15 15 15 15 14 14 14 14 14 15 15
15 15 16 16 16 16 16 16 16 16 16 16 16 16 16 16 16 16 16 16 16 16 16 16 15 15 15 15 15 15 15 15 15 15 15 15 14 14 14 14 14 14 14
15 15 16 16 16 16 16 16 16 16 16 16 16 16 16 16 16 16 16 16 16 16 16 15 15 15 15 15 15 15 15 15 15 15 15 14 14 14 14 14 14 14 14
15 15 15 16 16 16 16 16 16 16 16 16 16 16 16 16 16 16 16 16 16 16 15 15 15 15 15 15 15 15 15 15 15 15 14 14 14 14 14 14 14 14 14
15 15 15 15 15 15 15 16 16 16 16 16 16 16 16 16 16 16 16 16 15 15 15 15 15 15 15 15 15 15 15 15 15 14 14 14 14 14 14 14 14 14 14
15 15 15 15 15 15 15 15 15 16 16 16 16 16 16 16 16 16 16 16 15 15 15 15 15 15 15 15 15 15 15 15 15 15 14 14 14 14 14 14 14 14 14
14 15 15 15 15 15 15 15 15 15 15 15 15 16 16 15 16 15 16 15 15 15 15 15 15 15 15 15 15 15 15 15 14 14 14 14 14 14 13 13 13 13 13
14 14 14 15 15 15 15 15 15 15 15 15 15 15 15 15 15 15 15 15 15 15 15 15 15 15 15 15 15 15 15 15 14 14 14 14 14 13 13 13 13 13 13
14 14 14 14 14 14 15 15 15 15 15 15 15 15 15 15 15 15 15 15 15 15 15 15 15 15 15 15 15 15 15 14 14 14 14 14 14 13 13 13 13 13 13
13 13 14 14 14 14 14 14 14 14 14 14 15 15 15 15 15 15 15 15 15 15 15 15 15 15 15 15 15 15 14 14 14 14 14 14 14 14 13 13 13 13 13
13 13 13 13 13 14 14 14 14 14 14 14 14 14 14 14 14 14 15 14 14 14 14 15 15 15 15 14 14 14 14 14 14 14 14 14 14 14 13 13 13 13 13
12 12 13 13 13 13 13 13 14 14 14 14 14 14 14 14 14 14 14 14 14 14 14 14 14 14 14 14 14 14 14 14 14 14 14 14 14 14 14 13 13 13 13
12 12 12 12 12 13 13 13 13 13 13 13 13 13 14 14 14 14 14 14 14 14 14 14 14 14 14 14 14 14 14 14 14 14 14 14 14 14 14 14 13 13 13
11 11 12 12 12 12 12 13 13 13 13 13 13 13 13 13 13 13 13 13 13 14 14 14 14 14 14 14 14 14 14 14 14 14 14 14 14 14 14 14 13 13 13
11 11 11 11 11 12 12 12 12 12 12 12 13 13 13 13 13 13 13 13 13 13 13 13 13 13 13 14 14 14 14 14 14 14 14 14 14 14 13 13 13 13 13
10 11 11 11 11 11 11 11 12 12 12 12 12 12 12 12 12 12 12 13 13 13 13 13 13 13 13 13 13 13 13 13 13 13 13 13 14 13 13 13 13 13 13
10 10 10 10 11 11 11 11 11 11 11 11 11 11 11 11 11 12 12 12 12 12 12 12 12 12 12 13 13 13 13 13 13 13 13 13 13 13 13 13 13 13 13
10 10 10 10 10 10 10 10 10 10 10 10 10 10 11 11 11 11 11 11 11 12 12 12 12 12 12 12 12 13 13 13 13 13 13 13 13 13 13 13 13 13 13
9 9 9 9 9 10 10 10 10 10 10 10 10 10 10 10 10 10 11 11 11 11 11 11 11 11 11 12 12 12 12 12 12 12 13 13 13 13 13 12 12 12 12
9 9 9 9 9 9 9 9 9 9 9 9 9 9 10 10 10 10 10 10 10 10 11 11 11 11 11 11 11 11 12 12 12 12 12 12 12 12 12 12 12 12 12
8 8 8 8 9 8 9 8 8 8 9 9 9 9 9 9 9 9 9 9 10 10 10 10 10 10 10 10 10 10 10 11 12 12 12 12 12 12 12 12 12 12 12
8 8 8 8 8 8 8 8 8 8 8 8 9 9 9 8 9 9 9 9 9 9 9 9 10 9 9 10 10 10 10 10 10 11 11 11 11 11 11 11 11 11 11
7 7 7 7 7 7 7 8 8 8 8 8 8 8 8 8 8 8 8 8 8 8 9 9 9 9 9 9 9 9 9 9 9 9 10 10 10 10 11 11 11 11 11
7 7 7 7 7 7 7 7 7 7 7 7 7 7 7 7 7 8 8 8 8 8 8 8 8 8 8 8 8 8 8 8 9 8 9 9 10 10 10 10 10 10 10
7 7 6 7 7 7 7 7 7 7 7 7 7 7 7 7 7 7 7 7 7 7 7 7 7 8 8 8 7 7 8 8 8 8 8 8 8 9 9 9 9 9 9
Wind_Speed
4 6 3 2 5 6 7 7 8 8 8 8 8 9 9 9 8 9 8 8 8 7 7 7 7 8 8 8 9 9 10 10 10 10 10 9 9 10 10 10 10 9 10
4 5 2 4 4 5 6 6 7 7 7 7 7 7 7 7 7 7 7 7 7 6 6 7 7 7 7 8 9 9 9 9 10 10 10 9 9 9 9 9 8 8 9
3 4 4 4 4 4 5 5 6 6 6 5 5 5 6 6 6 6 6 6 6 6 5 6 7 7 7 8 9 9 9 9 9 9 8 7 7 8 8 8 8 8 8
4 6 6 6 5 4 4 4 4 4 4 4 4 4 4 5 5 5 5 5 5 5 5 5 6 6 7 8 8 9 8 8 7 7 6 4 4 6 7 7 7 7 8
6 7 7 7 6 5 4 3 3 2 2 3 3 3 3 3 4 4 5 5 5 5 5 6 6 6 7 8 8 8 8 7 6 6 4 3 2 4 5 6 6 7 7
7 8 8 8 7 6 5 4 3 2 0 1 3 3 4 4 4 4 4 5 6 6 6 6 7 7 8 8 8 8 7 7 7 6 5 4 3 4 5 6 6 6 6
7 9 9 9 8 7 6 5 4 3 2 1 2 3 4 5 5 5 5 5 6 7 7 6 7 8 9 9 9 9 8 8 8 6 5 5 5 5 5 6 6 5 5
7 10 11 11 10 10 8 7 5 5 4 3 3 3 4 5 6 5 6 6 7 8 8 8 8 9 9 9 10 9 9 9 8 7 7 7 7 7 6 6 6 6 6
10 10 11 12 11 10 9 8 8 6 5 5 5 4 5 5 6 6 6 7 7 8 9 9 10 10 10 10 10 10 10 10 9 8 8 8 9 9 8 8 8 7 7
9 9 11 12 12 11 10 9 9 8 7 6 6 6 6 6 6 7 7 8 8 9 10 10 11 11 11 11 11 11 11 10 9 9 9 9 11 11 10 10 9 9 8
9 8 9 11 12 12 10 10 10 9 8 7 7 7 7 6 6 6 8 9 9 10 10 11 12 12 13 12 13 12 11 10 10 9 10 11 12 13 12 12 11 11 10
8 8 7 9 10 11 10 10 9 8 8 7 7 6 6 6 6 6 7 9 9 10 10 11 12 12 12 10 11 12 10 10 10 10 12 13 14 14 14 14 13 13 12
5 7 8 8 10 9 8 8 7 7 7 7 7 6 6 5 5 5 4 6 7 8 8 9 9 9 9 9 9 9 10 10 10 11 13 15 16 16 16 16 15 15 14
6 7 8 8 8 9 8 7 6 6 6 6 7 7 5 3 3 3 3 4 4 5 5 6 5 7 8 10 10 9 10 9 10 11 13 16 18 18 18 17 17 17 17
6 7 8 7 7 8 7 6 6 6 6 6 7 7 5 3 3 3 3 3 4 5 4 4 5 6 6 8 9 9 9 10 11 12 12 16 18 19 19 19 19 19 19
6 7 7 7 8 8 6 5 5 6 7 7 7 7 7 4 3 3 3 3 4 5 5 5 5 6 6 6 7 8 9 10 11 12 13 14 18 19 20 20 20 20 20
6 7 8 7 8 8 7 6 6 6 6 6 7 8 7 6 4 3 3 4 4 6 5 5 5 5 5 5 7 8 7 8 9 11 12 13 14 17 20 21 21 21 21
6 7 8 8 8 8 7 6 5 6 5 5 7 8 8 7 6 4 3 4 5 5 4 4 4 5 6 6 6 6 6 6 8 10 10 11 12 13 16 20 21 21 21
5 6 7 8 8 8 7 6 5 5 5 5 7 7 8 8 6 4 3 4 5 3 3 4 4 4 5 6 6 6 6 6 7 8 8 10 12 12 13 15 18 20 20
5 6 6 7 8 7 6 5 4 4 4 5 6 7 8 7 7 5 3 4 4 3 3 3 4 4 4 4 5 5 5 6 6 7 8 8 9 11 12 12 13 14 18
5 6 7 8 8 7 5 4 4 4 4 4 5 8 9 8 7 5 4 3 3 3 4 4 4 4 4 2 3 4 4 5 6 6 6 6 7 8 9 10 11 11 13
5 6 6 7 7 7 5 4 3 3 3 3 4 7 9 9 8 6 4 3 3 3 4 3 3 2 2 2 2 2 3 3 3 5 5 6 6 5 6 8 10 11 12
4 5 6 6 6 6 6 4 4 3 2 3 5 5 7 9 9 7 6 4 3 3 3 4 3 2 3 2 2 2 2 3 2 2 4 4 4 4 5 5 7 9 11
3 4 4 5 5 5 5 4 4 3 3 3 4 4 6 8 9 9 7 6 4 3 3 4 4 3 2 2 2 2 2 1 2 3 2 2 3 4 5 5 5 7 9
3 3 4 4 4 4 4 4 3 3 2 3 3 5 6 6 8 10 9 7 5 4 4 4 4 3 3 3 2 1 2 2 2 3 4 3 3 3 4 5 4 4 5
2 2 3 3 3 4 4 4 4 4 4 4 5 5 5 5 5 9 9 7 6 5 5 4 3 4 3 3 2 1 1 1 1 2 4 4 4 3 4 4 3 2 2
Wind_Direction
311 316 319 87 113 120 122 120 119 113 111 114 116 118 121 126 131 134 134 136 139 137 133 130 131 127 124 122 119 118 115 110 105 100 97 99 101 101 95 89 87 85 89
293 320 13 86 103 115 121 122 122 121 119 118 122 124 127 130 136 143 145 147 149 149 144 142 143 139 134 129 126 123 118 112 106 100 95 92 98 106 103 99 98 96 94
351 17 45 73 87 104 115 120 123 130 133 132 131 134 139 140 144 149 155 161 162 162 160 153 150 150 145 138 134 132 128 123 116 107 99 93 99 109 108 109 107 105 102
22 36 42 57 73 81 94 112 124 133 146 151 150 150 151 156 161 168 172 175 174 176 176 166 156 156 154 150 147 144 140 134 127 117 107 103 105 119 119 120 115 112 109
34 39 40 50 55 60 63 67 92 120 151 174 176 174 178 182 188 190 194 193 189 187 183 175 168 167 165 161 159 157 154 151 146 140 135 136 140 142 137 132 125 121 118
34 35 38 42 41 44 49 47 40 42 42 196 204 208 210 211 212 213 212 206 200 196 194 192 186 180 177 175 173 171 171 165 158 158 163 174 193 177 155 149 143 134 129
33 30 33 33 30 30 28 27 22 20 12 345 266 241 234 232 230 227 224 218 214 208 205 206 202 194 193 191 188 183 182 174 167 170 184 196 209 198 177 167 159 153 147
36 28 28 26 24 21 18 14 7 2 356 339 319 293 272 258 249 242 238 232 225 221 218 216 210 207 205 205 201 193 186 179 178 186 197 207 215 210 197 184 177 173 171
34 28 23 21 19 14 9 5 1 347 340 331 320 313 308 290 269 257 248 243 239 234 229 224 219 215 214 213 211 202 193 189 184 192 203 213 220 218 210 201 195 194 190
32 24 17 14 13 8 1 360 356 348 338 330 322 313 307 300 286 270 256 250 247 242 237 232 227 223 220 218 216 209 199 194 195 201 208 216 224 225 220 214 207 205 203
23 17 14 9 6 1 357 356 354 351 344 334 327 320 309 299 289 277 263 256 252 247 243 240 235 230 225 222 219 214 203 197 199 208 215 222 226 229 227 221 215 211 209
8 4 10 5 1 357 356 351 349 350 345 340 333 327 316 303 288 283 275 262 257 253 250 246 243 236 229 222 221 216 208 202 203 213 220 224 228 232 230 224 220 217 216
355 357 359 358 357 356 351 348 346 345 344 342 340 335 325 314 304 297 284 273 264 257 252 252 248 237 226 219 217 214 212 209 212 219 224 226 229 233 232 227 224 222 221
0 354 353 353 353 352 348 342 342 346 343 340 332 329 331 327 315 304 283 277 267 257 249 245 240 235 228 224 221 217 216 216 220 223 228 228 230 233 235 232 229 227 225
0 350 347 346 350 349 348 344 347 341 340 336 333 327 324 314 291 290 289 282 274 264 249 247 242 239 235 230 228 225 223 223 225 227 231 231 231 234 237 236 234 232 229
353 344 340 344 348 347 346 339 338 339 339 339 335 329 322 313 306 292 283 277 276 271 259 249 246 244 243 237 237 232 230 228 228 230 234 236 235 235 238 239 238 236 233
346 342 342 342 351 348 343 339 343 341 343 344 336 329 323 314 305 296 278 275 277 276 269 260 255 250 247 242 241 239 237 233 231 231 233 236 238 236 237 240 241 239 238
351 347 344 348 348 346 343 337 341 346 348 343 337 335 330 323 314 308 287 284 289 280 267 263 256 255 252 246 244 241 237 235 237 235 233 234 236 237 237 239 241 242 242
355 347 344 345 346 341 338 337 338 345 350 344 343 344 338 334 330 321 301 304 304 285 275 274 267 257 256 255 251 245 237 235 237 238 231 232 233 234 235 238 240 242 244
357 351 346 346 348 343 337 335 341 350 351 354 354 352 345 343 342 340 328 322 318 296 288 281 273 266 261 261 263 256 246 243 237 235 233 231 230 231 234 238 241 244 245
360 358 354 353 350 352 347 344 340 341 339 346 358 359 355 353 350 350 331 324 322 302 294 286 271 273 267 275 269 272 260 243 240 240 236 231 230 230 231 234 237 241 246
349 349 351 350 346 347 340 322 307 312 321 333 353 3 3 2 357 356 338 326 327 315 312 311 306 277 269 246 237 272 277 276 254 242 235 233 235 230 229 233 235 239 244
339 342 342 340 342 344 343 340 343 351 342 352 357 358 2 5 4 3 355 348 346 345 331 325 325 296 282 271 240 223 246 258 303 278 246 238 238 237 241 243 244 247 249
310 325 327 331 339 344 352 2 8 14 1 345 342 346 351 3 5 4 3 4 359 354 349 342 344 321 299 292 297 284 264 258 263 294 292 266 261 250 251 253 254 258 255
298 317 321 327 339 349 0 9 18 16 353 336 350 359 1 0 6 7 7 7 1 353 351 354 350 347 323 305 296 292 279 290 261 263 282 300 295 268 268 263 259 262 269
299 315 319 328 339 351 6 17 25 16 4 7 7 4 1 358 2 5 6 7 3 357 350 350 355 1 348 336 328 334 328 308 311 280 274 283 285 286 284 269 263 267 298
Height
1526 1526 1526 1527 1528 1529 1530 1531 1532 1533 1533 1534 1535 1535 1536 1536 1536 1536 1537 1537 1537 1537 1537 1537 1537 1537 1538 1538 1538 1538 1539 1539 1540 1540 1540 1541 1541 1541 1542 1542 1542 1542 1542
1526 1526 1527 1527 1528 1529 1530 1531 1532 1533 1533 1534 1535 1535 1536 1536 1536 1537 1537 1537 1537 1537 1538 1538 1538 1538 1538 1538 1539 1539 1539 1540 1540 1541 1541 1541 1542 1542 1542 1542 1543 1543 1543
1525 1526 1527 1527 1528 1529 1530 1531 1532 1533 1533 1534 1534 1535 1535 1536 1536 1536 1537 1537 1537 1537 1538 1538 1538 1539 1539 1539 1539 1540 1540 1540 1541 1541 1541 1542 1542 1542 1542 1543 1543 1543 1543
1525 1526 1527 1527 1528 1529 1530 1531 1531 1532 1533 1534 1534 1535 1535 1535 1536 1536 1536 1537 1537 1537 1538 1538 1539 1539 1539 1539 1540 1540 1540 1541 1541 1541 1542 1542 1542 1542 1543 1543 1543 1543 1543
1525 1526 1526 1527 1528 1528 1529 1530 1530 1531 1532 1533 1533 1534 1534 1535 1535 1536 1536 1536 1537 1537 1538 1538 1538 1539 1539 1539 1540 1540 1541 1541 1541 1542 1542 1542 1542 1542 1543 1543 1543 1543 1543
1525 1526 1526 1527 1527 1528 1529 1529 1530 1530 1531 1532 1532 1533 1533 1534 1534 1535 1535 1536 1536 1537 1537 1537 1538 1538 1539 1539 1539 1540 1540 1541 1541 1541 1542 1542 1542 1542 1542 1543 1543 1543 1543
1525 1525 1526 1526 1526 1527 1528 1528 1529 1529 1530 1530 1531 1531 1532 1532 1533 1533 1534 1534 1535 1535 1536 1536 1537 1537 1538 1538 1539 1539 1540 1540 1541 1541 1541 1541 1542 1542 1542 1542 1542 1543 1543
1524 1525 1525 1525 1525 1526 1526 1527 1527 1528 1528 1529 1529 1529 1530 1530 1531 1532 1532 1533 1533 1534 1534 1535 1535 1536 1536 1537 1538 1538 1539 1539 1540 1540 1541 1541 1541 1541 1541 1542 1542 1542 1542
1524 1524 1524 1524 1524 1525 1525 1525 1525 1526 1526 1527 1527 1527 1528 1528 1529 1529 1530 1531 1531 1532 1532 1533 1533 1534 1535 1535 1536 1537 1537 1538 1538 1539 1539 1540 1540 1540 1541 1541 1541 1541 1542
1523 1523 1523 1523 1523 1523 1523 1523 1523 1524 1524 1524 1525 1525 1525 1526 1526 1527 1527 1528 1529 1529 1530 1531 1531 1532 1532 1533 1534 1535 1535 1536 1536 1537 1538 1538 1539 1539 1539 1540 1540 1540 1541
1522 1522 1522 1522 1521 1521 1521 1521 1521 1521 1521 1522 1522 1522 1523 1523 1523 1524 1524 1525 1526 1526 1527 1528 1528 1529 1530 1530 1531 1532 1533 1533 1534 1535 1536 1536 1537 1537 1538 1538 1539 1539 1539
1521 1520 1520 1520 1520 1520 1519 1519 1519 1519 1519 1519 1519 1519 1519 1520 1520 1521 1521 1522 1522 1523 1523 1524 1525 1526 1526 1527 1528 1529 1529 1530 1531 1532 1533 1534 1535 1535 1536 1536 1537 1537 1538
1519 1519 1519 1518 1518 1517 1517 1517 1517 1516 1516 1516 1516 1516 1516 1516 1517 1517 1518 1518 1519 1519 1520 1520 1521 1522 1522 1523 1524 1525 1526 1527 1527 1528 1530 1531 1532 1533 1533 1534 1535 1535 1535
1519 1518 1517 1516 1516 1515 1514 1514 1514 1513 1513 1513 1513 1513 1513 1513 1513 1513 1514 1514 1515 1515 1516 1516 1517 1518 1518 1519 1520 1521 1522 1523 1524 1525 1526 1527 1528 1529 1530 1531 1532 1532 1533
1517 1517 1516 1515 1514 1513 1512 1511 1510 1510 1510 1509 1509 1509 1509 1509 1509 1509 1510 1510 1511 1511 1512 1512 1513 1513 1514 1515 1515 1516 1517 1518 1519 1520 1521 1523 1524 1525 1526 1527 1528 1529 1530
1516 1515 1514 1513 1512 1511 1510 1508 1508 1507 1506 1506 1506 1505 1505 1505 1505 1505 1506 1506 1506 1507 1508 1508 1508 1509 1509 1510 1510 1511 1512 1513 1514 1515 1516 1518 1519 1521 1522 1523 1524 1525 1526
1514 1513 1512 1511 1510 1508 1507 1506 1505 1504 1503 1502 1502 1502 1502 1502 1501 1501 1501 1502 1502 1503 1503 1503 1504 1504 1504 1505 1505 1506 1506 1507 1508 1510 1511 1513 1514 1516 1517 1518 1520 1521 1522
1513 1512 1511 1509 1508 1506 1505 1504 1502 1501 1500 1500 1499 1498 1498 1498 1498 1497 1497 1498 1498 1498 1499 1499 1499 1499 1499 1500 1500 1501 1501 1502 1503 1504 1505 1506 1508 1510 1511 1513 1514 1516 1517
1511 1510 1509 1507 1506 1504 1503 1502 1500 1499 1498 1497 1496 1496 1495 1495 1494 1494 1494 1494 1494 1494 1494 1494 1494 1494 1494 1495 1495 1495 1496 1496 1498 1499 1499 1500 1502 1504 1505 1507 1508 1510 1511
1510 1508 1507 1506 1504 1502 1501 1500 1499 1498 1497 1496 1494 1493 1493 1492 1491 1491 1490 1490 1490 1490 1490 1490 1490 1490 1490 1490 1490 1490 1490 1491 1492 1493 1494 1495 1496 1497 1499 1501 1502 1503 1505
1508 1507 1505 1504 1502 1500 1499 1498 1496 1495 1494 1493 1492 1491 1490 1489 1488 1487 1486 1486 1486 1485 1485 1485 1485 1485 1485 1486 1486 1485 1485 1486 1486 1487 1489 1489 1490 1492 1493 1495 1496 1497 1498
1506 1505 1503 1502 1500 1499 1497 1496 1495 1494 1492 1491 1490 1489 1488 1487 1485 1484 1483 1482 1482 1482 1482 1481 1481 1481 1481 1481 1482 1481 1481 1481 1481 1482 1483 1484 1485 1487 1488 1489 1491 1491 1492
1504 1503 1501 1500 1498 1497 1496 1495 1493 1492 1491 1490 1488 1487 1486 1484 1483 1482 1481 1480 1479 1478 1478 1478 1477 1477 1477 1477 1478 1479 1478 1477 1477 1477 1478 1479 1480 1481 1482 1483 1484 1486 1486
1502 1501 1500 1498 1497 1496 1494 1493 1492 1490 1489 1488 1487 1485 1484 1483 1481 1480 1478 1477 1476 1475 1475 1474 1474 1474 1474 1474 1474 1474 1475 1475 1475 1473 1474 1474 1475 1476 1477 1478 1479 1479 1479
1501 1499 1498 1497 1496 1494 1493 1492 1490 1489 1488 1487 1486 1484 1483 1481 1480 1478 1477 1475 1474 1473 1472 1471 1471 1471 1471 1470 1470 1470 1471 1472 1471 1471 1470 1470 1471 1471 1472 1473 1473 1473 1473
1499 1498 1496 1495 1494 1493 1491 1490 1489 1488 1487 1486 1484 1483 1481 1480 1478 1476 1475 1473 1472 1470 1469 1469 1469 1468 1468 1468 1468 1467 1467 1468 1468 1468 1467 1466 1466 1466 1467 1468 1468 1467 1467